Terug naar catalogus

SL-16 DEB

ActiefLEO
NORAD 25411·DEBRIS·🇷🇺 Russia

Gelanceerd Jul 28, 1998 vanaf Baikonur Cosmodrome

Loading…

Volgende Passages (komende 24 uur)

TLE

VersSource: Space-Track

Epoch: Sep 14, 2026, 09:16 UTC

1 25411U 98045E   26257.38617632  .00000071  00000-0  10864-3 0  9997
2 25411  70.9839 240.0727 0211613 345.1203  14.3728 13.71385635406989

Volg SL-16 DEB in realtime met AllMySat

Download on the App Store